Regional Weather Roundup
Issued by NWS

Home | Current Version | Previous Version | Text Only | Print | Product List | Glossary Off
Versions: 1 2 3 4 5 6 7 8 9 10 11 12 13 14 15 16 17 18 19 20 21 22 23 24 25 26 27 28 29 30 31 32 33 34 35 36 37 38 39 40 41 42 43 44 45 46 47 48 49 50

000
ASUS43 KLSX 280107
RWRMO

WEATHER SUMMARY FOR MISSOURI
NATIONAL WEATHER SERVICE SPRINGFIELD MO
800 PM CDT SUN JUL 27 2014

NOTE: "FAIR" INDICATES FEW OR NO CLOUDS BELOW 12,000 FEET WITH NO
       SIGNIFICANT WEATHER AND/OR OBSTRUCTIONS TO VISIBILITY.
       CURRENT SKY AND/OR WEATHER CONDITIONS ARE NOT AVAILABLE FOR
       CHILLICOTHE AND FARMINGTON.

MOZ001>031-035>038-043-044-053-054-280200-
...NORTHERN AND WESTERN MISSOURI...

CITY           SKY/WX    TMP DP  RH WIND       PRES   REMARKS
KANSAS CTY INT CLEAR     78  59  51 N8        30.08R
KANSAS C DTWN  CLEAR     83  57  41 N9        30.05S
LEE`S SUMMIT   CLEAR     81  56  42 NW14      30.07R
ST JOSEPH      CLEAR     77  59  53 N9        30.08R
CHILLICOTHE      N/A     79  57  46 VRB5      30.06R
KIRKSVILLE     MOCLDY    74  57  55 NW9       30.05R

$$
MOZ066>068-077>081-088>096-101>105-280200-
...SOUTHWEST MISSOURI...

CITY           SKY/WX    TMP DP  RH WIND       PRES   REMARKS
SPRINGFIELD    PTCLDY    81  60  48 NW8       30.04S
JOPLIN         PTCLDY    83  66  56 N6        30.04F

$$
MOZ032>034-039>042-045>050-055>058-069>072-280200-
...CENTRAL MISSOURI...

CITY           SKY/WX    TMP DP  RH WIND       PRES   REMARKS
COLUMBIA       CLEAR     81  58  45 NW14      30.01R
JEFFERSON CITY CLEAR     83  57  41 NW9       29.99R
ROLLA          CLEAR     81  54  39 NW14G23   29.99R
SEDALIA        CLEAR     80  60  50 NW9       30.04S
WHITEMAN AFB   CLEAR     80  47  31 N8        30.04R
OSAGE BEACH      N/A     81  55  41 NW5       30.01S

$$
MOZ051-052-059>065-280200-
...EAST CENTRAL MISSOURI...

CITY           SKY/WX    TMP DP  RH WIND       PRES   REMARKS
ST LOUIS INTL  PTCLDY    82  59  45 N16G24    29.95R
SPIRIT OF STL  PTCLDY    82  57  42 NW9       29.94R
ST CHARLES     CLEAR     79  60  52 N15       29.94R

$$
MOZ072>076-082>087-097>100-106>115-280200-
...SOUTH CENTRAL AND SOUTHEAST MISSOURI...

CITY           SKY/WX    TMP DP  RH WIND       PRES   REMARKS
CAPE GIRARDEAU PTCLDY    82  70  66 W9        29.89R
FARMINGTON     PTCLDY    82  54  36 NW7       29.97R
POPLAR BLUFF   PTCLDY    86  64  47 NW7       29.90S
WEST PLAINS    CLOUDY    82  59  45 NW7       30.01S

$$


USA.gov is the U.S. government's official web portal to all federal, state and local government web resources and services.